EW2974 Weather Reports


Display with metric or nautical units.
time (UTC)temp
F
wind
direction
speed
MPH
gust
MPH
rain 1hr
in
rain 24hr
in
rain mn
in
humidity
%
barometer
mb
20260902095405 73 271 0.0 0.0 0.00 0.00 0.00 94 1013.2
20260902094904 73 268 0.0 3.0 0.00 0.00 0.00 94 1013.2
20260902093904 73 263 0.0 0.0 0.00 0.00 0.00 94 1013.3
20260902093404 73 263 0.0 0.0 0.00 0.00 0.00 94 1013.3
20260902092404 73 269 0.0 0.0 0.00 0.00 0.00 94 1013.5
20260902091904 72 269 0.0 0.0 0.00 0.00 0.00 94 1013.6
20260902091404 72 269 0.0 0.0 0.00 0.00 0.00 94 1013.6
20260902090905 72 269 0.0 0.0 0.00 0.00 0.00 94 1013.7
20260902090404 72 269 0.0 0.0 0.00 0.00 0.00 94 1013.5
20260902085904 72 269 0.0 0.0 0.00 0.00 0.00 94 1013.5
20260902085404 72 269 0.0 0.0 0.00 0.00 0.00 94 1013.5
20260902084904 72 269 0.0 0.0 0.00 0.00 0.00 94 1013.5
20260902084404 72 269 0.0 0.0 0.00 0.00 0.00 94 1013.4
20260902083904 72 269 0.0 0.0 0.00 0.00 0.00 93 1013.5
20260902083404 73 269 0.0 0.0 0.00 0.00 0.00 93 1013.5
20260902082905 73 269 0.0 0.0 0.00 0.00 0.00 93 1013.5
20260902082404 73 269 0.0 0.0 0.00 0.00 0.00 93 1013.5
20260902081904 73 269 0.0 0.0 0.00 0.00 0.00 93 1013.5
20260902081404 73 269 0.0 0.0 0.00 0.00 0.00 93 1013.5
20260902080904 73 269 0.0 0.0 0.00 0.00 0.00 93 1013.4
20260902080404 73 269 0.0 0.0 0.00 0.00 0.00 93 1013.5
20260902075904 73 269 0.0 0.0 0.00 0.00 0.00 93 1013.5
20260902075404 73 270 0.0 0.0 0.00 0.00 0.00 93 1013.5
20260902074904 73 270 0.0 0.0 0.00 0.00 0.00 93 1013.5
20260902073904 73 270 0.0 0.0 0.00 0.00 0.00 93 1013.5
20260902072904 73 270 0.0 0.0 0.00 0.00 0.00 93 1013.5
20260902072404 73 270 0.0 0.0 0.00 0.00 0.00 93 1013.5
20260902071904 73 270 0.0 0.0 0.00 0.00 0.00 93 1013.6
20260902071404 73 269 0.0 0.0 0.00 0.00 0.00 93 1013.6
20260902070904 73 269 0.0 0.0 0.00 0.00 0.00 93 1013.7
20260902070404 73 269 0.0 0.0 0.00 0.00 0.00 93 1013.7
20260902065904 73 269 0.0 0.0 0.00 0.00 0.00 93 1013.7
20260902064904 73 269 0.0 0.0 0.00 0.00 0.00 93 1013.8
20260902064404 73 269 0.0 0.0 0.00 0.00 0.00 93 1013.8
20260902063904 73 269 0.0 0.0 0.00 0.00 0.00 93 1013.8
20260902063404 73 269 0.0 0.0 0.00 0.00 0.00 93 1013.9
20260902062904 73 269 0.0 0.0 0.00 0.00 0.00 93 1013.8
20260902062404 73 269 0.0 0.0 0.00 0.00 0.00 93 1013.9
20260902061904 73 269 0.0 0.0 0.00 0.00 0.00 93 1013.8
20260902061405 73 269 0.0 0.0 0.00 0.00 0.00 93 1013.8
20260902060905 73 269 0.0 0.0 0.00 0.00 0.00 93 1013.9
20260902055905 73 269 0.0 0.0 0.00 0.00 0.00 93 1014.0
20260902054905 73 269 0.0 0.0 0.00 0.00 0.00 92 1013.9
20260902054405 73 269 0.0 0.0 0.00 0.00 0.00 92 1013.9
20260902053905 73 269 0.0 0.0 0.00 0.00 0.00 92 1013.8
20260902053405 73 269 0.0 0.0 0.00 0.00 0.00 92 1013.9
20260902052905 73 269 0.0 0.0 0.00 0.00 0.00 92 1013.9
20260902052405 73 269 0.0 0.0 0.00 0.00 0.00 91 1013.7
20260902051905 73 269 0.0 0.0 0.00 0.00 0.00 91 1013.6
20260902051405 73 269 0.0 0.0 0.00 0.00 0.00 91 1013.6
20260902050405 74 269 0.0 0.0 0.00 0.00 0.00 91 1013.6
20260902045905 74 269 0.0 0.0 0.00 0.00 0.00 90 1013.5
20260902045405 74 269 0.0 0.0 0.00 0.00 0.00 90 1013.4
20260902044404 74 269 0.0 0.0 0.00 0.00 0.00 90 1013.4
20260902043904 74 269 0.0 0.0 0.00 0.00 0.00 90 1013.5
20260902043405 74 269 0.0 0.0 0.00 0.00 0.00 90 1013.5
20260902042905 74 269 0.0 0.0 0.00 0.00 0.00 89 1013.5
20260902042405 75 269 0.0 0.0 0.00 0.00 0.00 89 1013.4
20260902041905 75 272 0.0 0.0 0.00 0.00 0.00 89 1013.4
20260902041405 75 270 0.0 0.0 0.00 0.00 0.00 89 1013.3
20260902040905 75 270 0.0 0.0 0.00 0.00 0.00 89 1013.3
20260902040405 75 270 0.0 0.0 0.00 0.00 0.00 89 1013.3
20260902035905 75 270 0.0 0.0 0.00 0.00 0.00 89 1013.2
20260902035405 75 270 0.0 0.0 0.00 0.00 0.00 89 1013.2
20260902034904 75 270 0.0 0.0 0.00 0.00 0.00 89 1013.2
20260902033905 75 270 0.0 0.0 0.00 0.00 0.00 88 1013.2
20260902033405 75 270 0.0 0.0 0.00 0.00 0.00 88 1013.2
20260902032905 75 270 0.0 0.0 0.00 0.00 0.00 88 1013.3
20260902032405 75 270 0.0 0.0 0.00 0.00 0.00 88 1013.3
20260902031905 75 270 0.0 0.0 0.00 0.00 0.00 88 1013.2
20260902031405 75 270 0.0 0.0 0.00 0.00 0.00 88 1013.2
20260902030905 75 270 0.0 0.0 0.00 0.00 0.00 88 1013.2
20260902030405 75 270 0.0 0.0 0.00 0.00 0.00 88 1013.2
20260902025905 75 271 0.0 0.0 0.00 0.00 0.00 89 1013.2
20260902025404 75 271 0.0 0.0 0.00 0.00 0.00 89 1013.3
20260902024904 75 271 0.0 0.0 0.00 0.00 0.00 89 1013.3
20260902024405 75 271 0.0 0.0 0.00 0.00 0.00 89 1013.3
20260902023904 75 271 0.0 0.0 0.00 0.00 0.00 89 1013.4
20260902023405 75 271 0.0 0.0 0.00 0.00 0.00 90 1013.3
20260902022905 75 271 0.0 0.0 0.00 0.00 0.00 90 1013.3
20260902022405 75 271 0.0 0.0 0.00 0.00 0.00 90 1013.2
20260902021905 75 271 0.0 0.0 0.00 0.00 0.00 90 1013.2
20260902021405 75 271 0.0 0.0 0.00 0.00 0.00 90 1013.3
20260902015905 75 271 0.0 0.0 0.00 0.00 0.00 89 1013.1
20260902015405 75 271 0.0 0.0 0.00 0.00 0.00 89 1013.2
20260902014904 75 271 0.0 0.0 0.00 0.00 0.00 88 1013.1
20260902014405 76 271 0.0 0.0 0.00 0.00 0.00 88 1013.1
20260902013905 76 271 0.0 0.0 0.00 0.00 0.00 88 1013.1
20260902013405 76 271 0.0 0.0 0.00 0.00 0.00 88 1013.1
20260902012905 76 271 0.0 0.0 0.00 0.00 0.00 88 1013.0
20260902012408 76 271 0.0 0.0 0.00 0.00 0.00 88 1013.0
20260902011905 76 271 0.0 0.0 0.00 0.00 0.00 87 1013.0
20260902011405 76 271 0.0 0.0 0.00 0.00 0.00 87 1012.9
20260902010905 77 271 0.0 0.0 0.00 0.00 0.00 87 1012.7
20260902010405 77 271 0.0 0.0 0.00 0.00 0.00 86 1012.8
20260902004404 78 271 0.0 0.0 0.00 0.00 0.00 85 1012.5
20260902003905 78 271 0.0 0.0 0.00 0.00 0.00 84 1012.5
20260902003405 78 271 0.0 0.0 0.00 0.00 0.00 84 1012.5
20260902002905 78 271 0.0 0.0 0.00 0.00 0.00 83 1012.5
20260902002405 79 271 0.0 0.0 0.00 0.00 0.00 83 1012.5
20260902001905 79 271 0.0 0.0 0.00 0.00 0.00 83 1012.5
20260902001404 79 271 0.0 0.0 0.00 0.00 0.00 82 1012.5
20260902000905 80 271 0.0 0.0 0.00 0.00 0.00 81 1012.4
20260902000406 80 271 0.0 0.0 0.00 0.00 0.00 81 1012.5
20260901235905 80 271 0.0 0.0 0.00 0.00 0.00 80 1012.5
20260901235405 81 271 0.0 0.0 0.00 0.00 0.00 79 1012.5
20260901234905 81 271 0.0 0.0 0.00 0.00 0.00 78 1012.5
20260901234405 82 271 0.0 0.0 0.00 0.00 0.00 78 1012.4
20260901233904 82 271 0.0 0.0 0.00 0.00 0.00 77 1012.4
20260901233404 82 271 0.0 0.0 0.00 0.00 0.00 75 1012.5
20260901232404 83 287 0.0 0.0 0.00 0.00 0.00 75 1012.7
20260901231905 83 288 0.0 0.0 0.00 0.00 0.00 74 1012.6
20260901231404 83 267 0.0 0.0 0.00 0.00 0.00 75 1012.7
20260901230905 84 225 0.0 0.0 0.00 0.00 0.00 74 1012.7
20260901224905 84 264 0.0 0.0 0.00 0.00 0.00 73 1012.7
20260901224405 85 265 0.0 0.0 0.00 0.00 0.00 73 1012.7
20260901223904 85 263 0.0 0.0 0.00 0.00 0.00 73 1012.7
20260901223404 85 261 0.0 1.0 0.00 0.00 0.00 72 1012.7
20260901222904 85 245 0.0 3.0 0.00 0.00 0.00 72 1012.8
20260901221904 86 202 2.0 8.0 0.00 0.00 0.00 70 1012.8
20260901221405 86 276 1.0 5.0 0.00 0.00 0.00 70 1012.9
20260901220905 86 264 1.0 8.0 0.00 0.00 0.00 70 1012.8
20260901220405 86 258 1.0 5.0 0.00 0.00 0.00 70 1012.8
20260901215904 86 252 0.0 0.0 0.00 0.00 0.00 69 1012.8
20260901215405 86 210 0.0 5.0 0.00 0.00 0.00 69 1012.6
20260901214904 87 250 3.0 17.0 0.00 0.00 0.00 68 1012.5
20260901213904 87 275 0.0 12.0 0.00 0.00 0.00 67 1012.7
20260901213404 88 264 3.0 8.0 0.00 0.00 0.00 67 1012.7
20260901212905 88 257 2.0 8.0 0.00 0.00 0.00 66 1012.7
20260901211904 89 275 1.0 9.0 0.00 0.00 0.00 65 1012.7
20260901210904 90 259 0.0 1.0 0.00 0.00 0.00 64 1012.7
20260901205905 89 217 1.0 8.0 0.00 0.00 0.00 65 1012.8
20260901205405 88 219 0.0 9.0 0.00 0.00 0.00 65 1012.8
20260901204905 88 262 1.0 12.0 0.00 0.00 0.00 64 1012.8
20260901204405 89 246 2.0 14.0 0.00 0.00 0.00 65 1012.7
20260901203904 88 269 2.0 9.0 0.00 0.00 0.00 63 1012.7
20260901202904 89 247 0.0 9.0 0.00 0.00 0.00 64 1012.7
20260901202404 89 231 2.0 14.0 0.00 0.00 0.00 63 1012.6
20260901201905 89 264 0.0 3.0 0.00 0.00 0.00 64 1012.4
20260901201404 88 271 1.0 6.0 0.00 0.00 0.00 64 1012.4
20260901200904 88 244 5.0 18.0 0.00 0.00 0.00 63 1012.4
20260901200404 88 251 1.0 5.0 0.00 0.00 0.00 64 1012.3
20260901195405 88 241 3.0 12.0 0.00 0.00 0.00 63 1012.2
20260901194905 89 241 1.0 8.0 0.00 0.00 0.00 64 1012.2
20260901194404 89 265 0.0 6.0 0.00 0.00 0.00 64 1012.4
20260901193905 89 225 1.0 5.0 0.00 0.00 0.00 64 1012.3
20260901193404 89 252 0.0 6.0 0.00 0.00 0.00 67 1012.3
20260901192905 89 203 0.0 9.0 0.00 0.00 0.00 65 1012.4
20260901192404 89 217 0.0 6.0 0.00 0.00 0.00 66 1012.4
20260901191904 90 255 1.0 6.0 0.00 0.00 0.00 67 1012.5
20260901191404 90 156 1.0 6.0 0.00 0.00 0.00 66 1012.5
20260901190904 90 262 1.0 8.0 0.00 0.00 0.00 66 1012.5
20260901190405 91 233 1.0 6.0 0.00 0.00 0.00 64 1012.5
20260901185904 90 264 2.0 12.0 0.00 0.00 0.00 64 1012.4
20260901185405 90 249 0.0 9.0 0.00 0.00 0.00 66 1012.5
20260901184905 90 225 0.0 6.0 0.00 0.00 0.00 67 1012.5
20260901184404 89 283 1.0 18.0 0.00 0.00 0.00 66 1012.6
20260901183904 89 268 1.0 9.0 0.00 0.00 0.00 68 1012.7
20260901183404 88 270 0.0 3.0 0.00 0.00 0.00 70 1012.7
20260901182904 88 265 0.0 5.0 0.00 0.00 0.00 70 1012.7
20260901181904 88 263 0.0 0.0 0.00 0.00 0.00 69 1012.8
20260901181405 88 263 0.0 1.0 0.00 0.00 0.00 67 1012.8
20260901180405 89 276 0.0 14.0 0.00 0.00 0.00 65 1012.9
20260901175904 90 215 0.0 6.0 0.00 0.00 0.00 62 1012.8
20260901174904 91 247 0.0 0.0 0.00 0.00 0.00 64 1012.6
20260901174405 91 226 0.0 1.0 0.00 0.00 0.00 65 1012.7
20260901173904 90 203 1.0 9.0 0.00 0.00 0.00 66 1012.8
20260901173404 90 230 0.0 5.0 0.00 0.00 0.00 62 1012.9
20260901172405 90 252 1.0 14.0 0.00 0.00 0.00 64 1013.1
20260901171905 90 268 2.0 12.0 0.00 0.00 0.00 62 1013.2
20260901171404 90 214 0.0 9.0 0.00 0.00 0.00 64 1013.2
20260901170904 90 280 4.0 8.0 0.00 0.00 0.00 63 1013.3
20260901170404 89 232 0.0 3.0 0.00 0.00 0.00 66 1013.3
20260901165904 89 259 3.0 9.0 0.00 0.00 0.00 66 1013.3
20260901164904 87 238 0.0 0.0 0.00 0.00 0.00 71 1013.3
20260901164404 87 249 2.0 9.0 0.00 0.00 0.00 69 1013.5
20260901163905 87 236 0.0 3.0 0.00 0.00 0.00 72 1013.4
20260901162404 87 238 0.0 1.0 0.00 0.00 0.00 73 1013.5
20260901161904 87 255 0.0 3.0 0.00 0.00 0.00 70 1013.6
20260901161404 86 257 0.0 0.0 0.00 0.00 0.00 71 1013.6
20260901160904 86 258 0.0 0.0 0.00 0.00 0.00 70 1013.5
20260901155904 86 279 0.0 0.0 0.00 0.00 0.00 70 1013.4
20260901155404 86 346 0.0 0.0 0.00 0.00 0.00 72 1013.3
20260901153904 85 266 2.0 8.0 0.00 0.00 0.00 71 1013.5
20260901153404 85 259 1.0 6.0 0.00 0.00 0.00 72 1013.5
20260901152905 85 262 0.0 0.0 0.00 0.00 0.00 73 1013.5
20260901152404 85 195 0.0 8.0 0.00 0.00 0.00 75 1013.5
20260901151904 84 239 0.0 3.0 0.00 0.00 0.00 74 1013.5
20260901151409 84 265 0.0 1.0 0.00 0.00 0.00 74 1013.5
20260901150904 84 255 1.0 6.0 0.00 0.00 0.00 73 1013.5
20260901145904 84 267 3.0 6.0 0.00 0.00 0.00 73 1013.5
20260901145404 83 269 0.0 1.0 0.00 0.00 0.00 75 1013.5
20260901144905 83 250 1.0 8.0 0.00 0.00 0.00 77 1013.4
20260901142904 82 273 0.0 5.0 0.00 0.00 0.00 78 1013.4
20260901142404 81 264 1.0 5.0 0.00 0.00 0.00 79 1013.4
20260901141904 81 267 0.0 0.0 0.00 0.00 0.00 79 1013.4
20260901141405 81 267 0.0 3.0 0.00 0.00 0.00 80 1013.3
20260901140404 80 263 1.0 5.0 0.00 0.00 0.00 80 1013.2
20260901135904 80 180 1.0 6.0 0.00 0.00 0.00 81 1013.3
20260901134904 79 229 0.0 0.0 0.00 0.00 0.00 83 1013.4
20260901134404 79 270 0.0 5.0 0.00 0.00 0.00 84 1013.4
20260901133904 78 178 0.0 3.0 0.00 0.00 0.00 84 1013.4
20260901133404 78 262 1.0 5.0 0.00 0.00 0.00 85 1013.5
20260901132904 77 251 0.0 3.0 0.00 0.00 0.00 86 1013.6
20260901132404 77 226 0.0 0.0 0.00 0.00 0.00 86 1013.7
20260901131904 77 239 0.0 0.0 0.00 0.00 0.00 86 1013.7
20260901131404 76 185 0.0 0.0 0.00 0.00 0.00 87 1013.8
20260901130904 76 274 0.0 0.0 0.00 0.00 0.00 87 1013.8
20260901125905 76 276 0.0 0.0 0.00 0.00 0.00 88 1013.7
20260901124904 76 276 0.0 0.0 0.00 0.00 0.00 88 1013.9
20260901123904 75 233 0.0 0.0 0.00 0.00 0.00 89 1013.8
20260901123404 75 233 0.0 0.0 0.00 0.00 0.00 89 1013.8
20260901122905 75 233 0.0 0.0 0.00 0.00 0.00 90 1013.9
20260901122404 74 236 0.0 0.0 0.00 0.00 0.00 91 1013.9
20260901121904 74 236 0.0 0.0 0.00 0.00 0.00 91 1013.9
20260901121404 74 236 0.0 0.0 0.00 0.00 0.00 91 1013.9
20260901120904 74 236 0.0 0.0 0.00 0.00 0.00 91 1014.0
20260901115904 73 236 0.0 0.0 0.00 0.00 0.00 91 1014.0
20260901115404 73 236 0.0 0.0 0.00 0.00 0.00 91 1014.0
20260901114904 73 236 0.0 0.0 0.00 0.00 0.00 90 1014.0
20260901114404 73 236 0.0 0.0 0.00 0.00 0.00 90 1013.9
20260901113903 74 236 0.0 0.0 0.00 0.00 0.00 90 1013.8
20260901113404 74 236 0.0 0.0 0.00 0.00 0.00 90 1013.8
20260901112904 74 236 0.0 0.0 0.00 0.00 0.00 90 1013.7
20260901111904 73 236 0.0 0.0 0.00 0.00 0.00 90 1013.7
20260901110904 73 244 0.0 0.0 0.00 0.00 0.00 90 1013.5
20260901110404 73 244 0.0 0.0 0.00 0.00 0.00 90 1013.4
20260901105904 73 244 0.0 0.0 0.00 0.00 0.00 89 1013.4
20260901105404 73 244 0.0 0.0 0.00 0.00 0.00 89 1013.4
20260901104904 74 244 0.0 0.0 0.00 0.00 0.00 89 1013.4
20260901104404 73 244 0.0 0.0 0.00 0.00 0.00 89 1013.4
20260901103904 73 244 0.0 0.0 0.00 0.00 0.00 90 1013.4
20260901103404 73 244 0.0 0.0 0.00 0.00 0.00 90 1013.4
20260901102904 73 244 0.0 0.0 0.00 0.00 0.00 90 1013.3
20260901102404 73 244 0.0 0.0 0.00 0.00 0.00 90 1013.2
20260901101904 73 244 0.0 0.0 0.00 0.00 0.00 90 1013.2
20260901101404 73 245 0.0 0.0 0.00 0.00 0.00 90 1013.1
20260901100904 73 246 0.0 0.0 0.00 0.00 0.00 90 1013.2